Regional Weather Roundup
Issued by NWS Goodland, KS

Home | Current Version | Previous Version | Text Only | Print | Product List | Glossary Off
Versions: 1 2 3 4 5 6 7 8 9 10 11 12 13 14 15 16 17 18 19 20 21 22 23 24 25 26 27 28 29 30 31 32 33 34 35 36 37 38 39 40 41 42 43 44 45 46 47 48 49 50

000
ASUS43 KGLD 291708
RWRGLD

GOODLAND FORECAST AREA HOURLY WEATHER ROUNDUP
NATIONAL WEATHER SERVICE GOODLAND KS
1100 AM MDT FRI APR 29 2016

...OFFICIAL OBSERVATIONS...

CITY           SKY/WX    TMP DP  RH WIND       PRES   REMARKS
GOODLAND KS    LGT RAIN  40  38  93 NE21      29.93F
HILL CITY KS   LGT RAIN  43  39  86 NE16      30.02S FOG
IMPERIAL NEB   CLOUDY    42  36  79 NE16      30.02S
MCCOOK NEB     CLOUDY    44  36  73 E16G25    30.02S
AKRON CO       LGT SNOW  34  32  92 NE12      29.95F FOG
BURLINGTON CO  LGT RAIN  40  36  86 E22G28    29.92F
LIMON CO       LGT SNOW  32  31  96 N9        29.93S VSB 3/4
$$

...UNOFFICIAL OBSERVATIONS...

CITY           SKY/WX    TMP DP  RH WIND       PRES   REMARKS
COLBY KS       LGT RAIN  39  39 100 NE21      30.00R
GOVE KS          N/A     41  32  70 MISG        N/A
LENORA KS        N/A     41  32  70 MISG        N/A
NORTON KS      CLOUDY    43  34  70 NE18      30.02F
SHARON SPRINGS   N/A     40  39  95 NE20G30     N/A
TRIBUNE KS     CLOUDY    41  39  93 NE25G32   29.92
KIT CARSON CO    N/A     38  35  90 MISG        N/A
YUMA CO          N/A     39  37  94 NE13        N/A
$$




USA.gov is the U.S. government's official web portal to all federal, state and local government web resources and services.